Huvudsida
METAR-TAF:

METAR-TAF

Flygplatser :

Dayrestan Airport

Qeshm, Iran

latitud: 26-45-18N, longitud: 055-54-08E, höjd: 12 m

Aktuellt väderrapport

Denna rapport gjordes för 42 minuter sedan, klockan 19:00 UTC
Vind 4 kt från nordväst
Temperatur 20°C
Fuktighet 83%
Tryck 1012 hPa
Sikt: 6000 m

METAR: OIKQ 281900Z 31004KT 6000 NSC 20/17 Q1012 NOSIG

Tid: 23:12 (19:42 UTC)


TAF: saknas

Aktuella väderrapporter och prognoser från 4000 flygplatser (METAR- och TAF-rapporter).

De tillgängliga stationerna syns som gula och röda prickar på kartan.

För musen över prickarna för att se namnen på stationerna.

Klicka sedan för att få väderrapporter och prognoser.

För att ändra kartan: Klicka på de gröna knapparna med ett svart kors på för att zooma in; den gröna knappen med ett streck på för att zooma ut; eller på de gröna pilarna för angränsande kartor.


METAR-TAF: